Location: Sihaung
(22.8641°N, 94.0549°E)
Time: 11:52:33
(UTC+00:00)

Cosmos 1844 Rocket - Pass Details

Date: 03 March 2021
Orbit: 826 x 843 km, 71.0° (Epoch: 10 April)

Event Time Altitude Azimuth Distance (km) Brightness Sun altitude
Rises 13:24:33 0° 350° (N) 3,360 6.0 -23.0°
Reaches altitude 10° 13:27:05 10° 357° (N) 2,425 5.1 -23.6°
Enters shadow 13:30:52 37° 28° (NNE) 1,263 3.4 -24.5°
